Hourly Data Report for May 19, 2015

All times are specified in Local Standard Time (LST). Add 1 hour to adjust for Daylight Saving Time where and when it is observed.

CHARLOTTETOWN A
PRINCE EDWARD ISLAND

46°17'21.000" N
63°07'09.000" W
48.50 m
8300301
71706
YYG

Download Data

Hourly Data (May 2015)
Hourly Data Report for May 19, 2015
Temp Definition
°C
Dew Point Temp Definition
°C
Rel Hum Definition
%
Wind Dir Definition
10's deg

Wind Spd Definition
km/h
Visibility Definition
km
Stn Press Definition
kPa
Hmdx Definition


Wind Chill Definition


Weather Definition


TIME
00:00 Legend Double Dagger 7.6 2.5 70 19 10 24.1 101.27     LegendNANA
01:00 Legend Double Dagger 7.5 2.8 72 19 12 24.1 101.23     LegendNANA
02:00 Legend Double Dagger 7.7 3.4 74 23 13 24.1 101.19     Clear
03:00 Legend Double Dagger 8.1 3.2 71 23 11 24.1 101.14     LegendNANA
04:00 Legend Double Dagger 8.2 2.3 66 22 12 24.1 101.08     LegendNANA
05:00 Legend Double Dagger 7.9 2.4 68 19 12 24.1 101.06     Mostly Cloudy
06:00 Legend Double Dagger 8.5 2.8 67 20 12 24.1 101.00     LegendNANA
07:00 Legend Double Dagger 9.6 2.3 60 21 16 24.1 100.95     LegendNANA
08:00 Legend Double Dagger 12.4 1.8 48 21 19 24.1 100.89     Mostly Cloudy
09:00 Legend Double Dagger 12.8 1.5 46 20 25 24.1 100.82     LegendNANA
10:00 Legend Double Dagger 13.6 2.6 47 20 21 24.1 100.75     LegendNANA
11:00 Legend Double Dagger 15.6 2.8 42 19 24 24.1 100.67     Mostly Cloudy
12:00 Legend Double Dagger 16.5 2.6 39 21 20 24.1 100.59     LegendNANA
13:00 Legend Double Dagger 18.3 1.9 33 22 25 24.1 100.51     LegendNANA
14:00 Legend Double Dagger 16.7 2.0 37 24 21 24.1 100.48     Cloudy
15:00 Legend Double Dagger 15.0 2.6 43 25 15 24.1 100.44     LegendNANA
16:00 Legend Double Dagger 13.3 1.1 43 25 18 24.1 100.39     LegendNANA
17:00 Legend Double Dagger 10.3 8.6 89 24 23 6.4 100.35     Rain Showers,Fog
18:00 Legend Double Dagger 9.6 7.9 89 22 12 6.4 100.31     Moderate Rain Showers,Fog
19:00 Legend Double Dagger 9.4 8.0 91 24 17 8.1 100.34     Rain Showers,Fog
20:00 Legend Double Dagger 9.1 7.9 92 22 14 8.1 100.33     Rain Showers,Fog
21:00 Legend Double Dagger 8.9 8.3 96 20 22 16.1 100.30     Rain Showers
22:00 Legend Double Dagger 7.6 7.0 96 18 29 16.1 100.21     LegendNANA
23:00 Legend Double Dagger 7.7 6.7 93 19 22 19.3 100.13     Cloudy

Notes on Data Quality.

Legend

  • E = Estimated
  • M = Missing
  • NA = Not Available
  • ‡ = Partner data that is not subject to review by the National Climate Archives
Date modified: